Tracking 29892 objects as of 21-Nov-2024
HD Live streaming from Space Station
objects crossing your sky now

STARLINK-1960

Track STARLINK-1960 now!
10-day predictions
STARLINK-1960 is classified as:


NORAD ID: 47561
Int'l Code: 2021-009P
Perigee: 553.2 km
Apogee: 555.4 km
Inclination: 53.1 °
Period: 95.6 minutes
Semi major axis: 6925 km
RCS: Unknown
Launch date: February 4, 2021
Source: United States (US)
Launch site: AIR FORCE EASTERN TEST RANGE (AFETR)
Your satellite tracking list
Your tracking list is empty




NASA's NSSDC Master Catalog

Two Line Element Set (TLE):
1 47561U 21009P   24325.47798130  .00008227  00000-0  57026-3 0  9992
2 47561  53.0536 350.4371 0001607  85.8946 274.2227 15.06419982209321
Source of the keplerian elements: AFSPC